FW3284 Weather Reports


time (UTC)temp
C
wind
direction
speed
KPH
gust
KPH
rain 1hr
cm
rain 24hr
cm
rain mn
cm
humidity
%
barometer
mb
20260906171522 35 105 6.4 12.9 0.00 0.00 0.00 42 1013.0
20260906170008 35 81 4.8 11.3 0.00 0.00 0.00 44 1013.1
20260906164548 35 54 3.2 9.7 0.00 0.00 0.00 45 1013.3
20260906163028 35 46 1.6 6.4 0.00 0.00 0.00 47 1013.4
20260906161601 33 51 3.2 9.7 0.00 0.00 0.00 48 1013.5
20260906161505 33 182 4.8 9.7 0.00 0.00 0.00 48 1013.5
20260906160035 33 98 3.2 12.9 0.00 0.00 0.00 51 1013.6
20260906154509 32 152 0.0 8.0 0.00 0.00 0.00 55 1013.5
20260906153048 32 60 0.0 9.7 0.00 0.00 0.00 55 1013.5
20260906151528 31 111 6.4 9.7 0.00 0.00 0.00 56 1013.4
20260906150009 31 70 4.8 8.0 0.00 0.00 0.00 55 1013.4
20260906144547 31 73 1.6 6.4 0.00 0.00 0.00 56 1013.4
20260906143026 30 131 4.8 8.0 0.00 0.00 0.00 57 1013.4
20260906141513 30 171 1.6 4.8 0.00 0.00 0.00 59 1013.3
20260906140052 28 129 3.2 4.8 0.00 0.00 0.00 63 1013.2
20260906134522 27 122 1.6 6.4 0.00 0.00 0.00 65 1013.2
20260906133122 26 120 3.2 6.4 0.00 0.00 0.00 68 1013.1
20260906131540 26 143 0.0 3.2 0.00 0.00 0.00 70 1013.1
20260906130022 25 114 3.2 6.4 0.00 0.00 0.00 73 1013.0
20260906124504 23 141 1.6 3.2 0.00 0.00 0.00 75 1013.1
20260906123043 23 141 0.0 3.2 0.00 0.00 0.00 78 1012.8
20260906121525 22 133 1.6 3.2 0.00 0.00 0.00 79 1012.5
20260906120008 22 133 1.6 3.2 0.00 0.00 0.00 79 1012.4
20260906114549 21 117 1.6 3.2 0.00 0.00 0.00 82 1012.3
20260906113026 21 122 1.6 3.2 0.00 0.00 0.00 82 1012.2
20260906111506 22 146 0.0 1.6 0.00 0.00 0.00 80 1012.0
20260906110043 22 146 1.6 3.2 0.00 0.00 0.00 79 1012.0
20260906104525 22 134 1.6 3.2 0.00 0.00 0.00 79 1012.0
20260906103008 22 167 1.6 1.6 0.00 0.00 0.00 79 1012.0
20260906101540 23 167 1.6 1.6 0.00 0.00 0.00 78 1011.9
20260906100023 23 167 0.0 3.2 0.00 0.00 0.00 75 1011.8
20260906094554 23 167 0.0 1.6 0.00 0.00 0.00 74 1011.7
20260906093032 24 210 0.0 3.2 0.00 0.00 0.00 70 1011.6
20260906091519 24 205 0.0 0.0 0.00 0.00 0.00 70 1011.5
20260906090053 24 205 0.0 0.0 0.00 0.00 0.00 69 1011.4
20260906084530 25 205 0.0 3.2 0.00 0.00 0.00 67 1011.3
20260906083013 25 205 0.0 3.2 0.00 0.00 0.00 67 1011.3
20260906081552 25 149 0.0 3.2 0.00 0.00 0.00 67 1011.3
20260906080034 25 113 3.2 4.8 0.00 0.00 0.00 66 1011.3
20260906074512 25 118 1.6 4.8 0.00 0.00 0.00 66 1011.3
20260906073053 25 124 1.6 3.2 0.00 0.00 0.00 65 1011.5
20260906071526 25 133 1.6 4.8 0.00 0.00 0.00 66 1011.4
20260906070007 25 153 1.6 3.2 0.00 0.00 0.00 66 1011.5
20260906064532 25 158 1.6 4.8 0.00 0.00 0.00 66 1011.7
20260906063010 26 124 0.0 1.6 0.00 0.00 0.00 65 1011.8
20260906061554 26 124 0.0 3.2 0.00 0.00 0.00 64 1011.8
20260906060059 26 136 0.0 3.2 0.00 0.00 0.00 63 1011.8
20260906054552 26 135 0.0 3.2 0.00 0.00 0.00 64 1011.9
20260906053010 26 135 0.0 3.2 0.00 0.00 0.00 65 1011.8
20260906051606 26 135 0.0 3.2 0.00 0.00 0.00 64 1011.8
20260906050024 25 129 1.6 1.6 0.00 0.00 0.00 67 1011.8
20260906044606 26 129 0.0 3.2 0.00 0.00 0.00 65 1011.7
20260906043036 26 126 1.6 4.8 0.00 0.00 0.00 64 1011.8
20260906041519 26 121 1.6 3.2 0.00 0.00 0.00 64 1011.9
20260906040136 26 124 1.6 4.8 0.00 0.00 0.00 63 1011.8
20260906034545 26 141 1.6 4.8 0.00 0.00 0.00 62 1011.6
20260906033038 27 129 1.6 4.8 0.00 0.00 0.00 61 1011.7
20260906031558 27 128 0.0 4.8 0.00 0.00 0.00 59 1011.4
20260906031508 27 128 0.0 4.8 0.00 0.00 0.00 59 1011.4
20260906030040 27 105 0.0 3.2 0.00 0.00 0.00 60 1011.2
20260906024524 27 109 1.6 3.2 0.00 0.00 0.00 61 1011.2
20260906023008 28 122 0.0 3.2 0.00 0.00 0.00 58 1010.9
20260906021550 28 157 1.6 3.2 0.00 0.00 0.00 59 1010.9
20260906020030 28 132 3.2 4.8 0.00 0.00 0.00 58 1010.7
20260906014516 28 122 3.2 6.4 0.00 0.00 0.00 57 1010.4
20260906013058 28 143 1.6 6.4 0.00 0.00 0.00 56 1010.4
20260906013001 28 143 1.6 6.4 0.00 0.00 0.00 56 1010.4
20260906011538 29 150 0.0 3.2 0.00 0.00 0.00 56 1010.1
20260906010022 30 127 1.6 6.4 0.00 0.00 0.00 54 1010.1
20260906004507 30 124 6.4 11.3 0.00 0.00 0.00 54 1010.4
20260906003043 31 115 11.3 17.7 0.00 0.00 0.00 52 1010.5
20260906001523 32 103 1.6 4.8 0.00 0.00 0.00 47 1010.2
20260906000005 32 132 3.2 6.4 0.00 0.00 0.00 46 1010.1
20260905234547 32 129 3.2 14.5 0.00 0.00 0.00 45 1009.9
20260905233025 33 126 6.4 20.9 0.00 0.00 0.00 43 1009.9
20260905231518 35 97 3.2 11.3 0.00 0.00 0.00 36 1009.8
20260905230100 35 34 8.0 22.5 0.00 0.00 0.00 34 1009.9
20260905224606 32 72 14.5 29.0 0.00 0.00 0.00 43 1009.9
20260905223004 36 53 6.4 20.9 0.00 0.00 0.00 39 1010.1
20260905221546 37 359 0.0 8.0 0.00 0.00 0.00 36 1009.7
20260905220024 38 67 3.2 4.8 0.00 0.00 0.00 35 1009.8
20260905214510 38 320 0.0 6.4 0.00 0.00 0.00 34 1009.8
20260905213055 38 219 0.0 4.8 0.00 0.00 0.00 34 1009.9
20260905211540 37 174 1.6 8.0 0.00 0.00 0.00 35 1010.1
20260905210016 37 90 1.6 4.8 0.00 0.00 0.00 35 1010.3
20260905204540 38 127 1.6 6.4 0.00 0.00 0.00 35 1010.6
20260905203022 37 346 0.0 8.0 0.00 0.00 0.00 37 1010.7
20260905201504 37 33 0.0 6.4 0.00 0.00 0.00 36 1010.9
20260905200048 36 37 4.8 12.9 0.00 0.00 0.00 37 1011.1
20260905194531 37 302 1.6 6.4 0.00 0.00 0.00 36 1011.3
20260905193010 36 256 1.6 8.0 0.00 0.00 0.00 39 1011.4
20260905191547 36 173 3.2 8.0 0.00 0.00 0.00 39 1011.7
20260905190028 35 83 8.0 12.9 0.00 0.00 0.00 40 1012.1
20260905184524 35 32 1.6 16.1 0.00 0.00 0.00 42 1012.2
20260905183050 36 53 8.0 14.5 0.00 0.00 0.00 40 1012.4
20260905181533 36 16 3.2 11.3 0.00 0.00 0.00 41 1012.7
20260905180017 35 355 3.2 9.7 0.00 0.00 0.00 43 1012.8
20260905174554 35 70 0.0 12.9 0.00 0.00 0.00 44 1013.1
20260905173047 35 42 1.6 9.7 0.00 0.00 0.00 44 1013.3